FW9329 Weather Reports


time (UTC)temp
C
wind
direction
speed
KPH
gust
KPH
rain 1hr
cm
rain 24hr
cm
rain mn
cm
humidity
%
barometer
mb
20260504231542 12 0 4.8 20.9 0.00 0.00 0.00 81 1011.3
20260504230046 12 176 4.8 17.7 0.00 0.00 0.00 80 1011.3
20260504224546 13 0 4.8 20.9 0.00 0.00 0.00 78 1011.3
20260504223040 13 0 8.0 29.0 0.00 0.00 0.00 77 1011.4
20260504221545 14 0 11.3 29.0 0.00 0.00 0.00 76 1011.4
20260504220046 15 0 14.5 32.2 0.00 0.00 0.00 74 1011.3
20260504214551 15 191 11.3 33.8 0.00 0.00 0.00 73 1011.4
20260504213041 15 186 6.4 32.2 0.00 0.00 0.00 72 1011.4
20260504211548 15 0 6.4 32.2 0.00 0.00 0.00 71 1011.4
20260504210058 15 154 11.3 32.2 0.00 0.00 0.00 71 1011.5
20260504204557 15 176 9.7 35.4 0.00 0.00 0.00 70 1011.5
20260504203056 16 194 14.5 35.4 0.00 0.00 0.00 69 1011.4
20260504201542 16 173 9.7 33.8 0.00 0.00 0.00 70 1011.4
20260504200041 16 221 17.7 35.4 0.00 0.00 0.00 69 1011.7
20260504194547 16 219 14.5 40.2 0.00 0.00 0.00 68 1011.8
20260504193044 17 234 12.9 35.4 0.00 0.00 0.00 65 1011.8
20260504191542 17 209 12.9 32.2 0.00 0.00 0.00 65 1011.8
20260504190042 17 0 9.7 40.2 0.00 0.00 0.00 65 1011.9
20260504184544 17 231 20.9 43.5 0.00 0.00 0.00 65 1012.1
20260504183047 17 216 16.1 38.6 0.00 0.00 0.00 65 1012.3
20260504181545 17 206 11.3 33.8 0.00 0.00 0.00 67 1012.5
20260504180044 16 221 19.3 38.6 0.00 0.00 0.00 67 1012.5
20260504174543 16 213 11.3 32.2 0.00 0.00 0.00 68 1012.8
20260504173049 16 228 20.9 38.6 0.00 0.00 0.00 68 1012.8
20260504171542 16 213 14.5 30.6 0.00 0.00 0.00 70 1012.9
20260504081548 10 228 12.9 27.4 0.00 0.00 0.00 75 1013.7
20260504044542 10 236 4.8 20.9 0.00 0.00 0.00 78 1013.0
20260504043043 10 222 3.2 16.1 0.00 0.00 0.00 77 1013.1
20260504041544 10 224 1.6 17.7 0.00 0.00 0.00 77 1012.8
20260504040049 10 224 4.8 17.7 0.00 0.00 0.00 79 1012.9
20260504034552 9 218 3.2 16.1 0.00 0.00 0.00 80 1012.8
20260504033042 9 240 3.2 12.9 0.00 0.00 0.00 78 1012.8
20260504031543 8 224 4.8 14.5 0.00 0.00 0.00 76 1012.6
20260504030042 8 240 1.6 16.1 0.00 0.00 0.00 72 1012.7
20260504024551 8 0 0.0 4.8 0.00 0.00 0.00 67 1012.6
20260504023045 8 0 0.0 0.0 0.00 0.00 0.00 62 1012.5
20260504021546 8 0 0.0 0.0 0.00 0.00 0.00 59 1012.5
20260504020044 9 0 0.0 0.0 0.00 0.00 0.00 55 1012.4
20260504014548 10 0 0.0 0.0 0.00 0.00 0.00 52 1012.4
20260504013055 10 0 0.0 4.8 0.00 0.00 0.00 51 1012.2
20260504011545 10 0 0.0 4.8 0.00 0.00 0.00 49 1012.0
20260504010045 10 0 0.0 4.8 0.00 0.00 0.00 48 1011.9
20260504004543 11 0 0.0 0.0 0.00 0.00 0.00 45 1011.6
20260504003041 11 0 0.0 0.0 0.00 0.00 0.00 41 1011.5
20260504001543 11 0 0.0 4.8 0.00 0.00 0.00 40 1011.2
20260504000041 12 278 0.0 3.2 0.00 0.00 0.00 39 1011.0
20260503234545 12 0 1.6 11.3 0.00 0.00 0.00 40 1010.8
20260503233045 13 0 0.0 8.0 0.00 0.00 0.00 37 1010.6